Hourly Data Report for November 26, 2021

DRYDEN REGIONAL
ONTARIO
Current Station Operator: NAVCAN

49°49'39.000" N
92°44'39.000" W
412.70 m
6032125
71527
YHD

Download Data

Hourly Data (November 2021)
Hourly Data Report for November 26, 2021
TIME
LST
Temp Definition
°C
Dew Point Definition
°C
Rel Hum Definition
%
Precip. Amount Definition
mm

Wind Dir Definition
10's deg

Wind Spd Definition
km/h
Visibility Definition
km
Stn Press Definition
kPa
Hmdx Definition


Wind Chill Definition


Weather Definition


00:00 -13.5 -16.7 77 0.0 20 9 16.1 97.15   -19 LegendNANA
01:00 -12.7 -16.4 74 0.0 18 13 16.1 97.05   -20 LegendNANA
02:00 -12.0 -15.9 73 0.0 19 9 16.1 97.00   -17 LegendNANA
03:00 -11.7 -16.5 68 0.0 18 9 16.1 96.95   -17 LegendNANA
04:00 -11.4 -15.5 72 0.0 15 9 16.1 96.89   -17 LegendNANA
05:00 -11.3 -14.7 76 0.0 13 11 16.1 96.87   -17 LegendNANA
06:00 -11.1 -15.0 73 0.0 15 15 16.1 96.82   -18 LegendNANA
07:00 -10.7 -15.2 70 0.0 13 17 16.1 96.73   -18 LegendNANA
08:00 -10.4 -15.2 68 0.0 14 22 16.1 96.62   -19 LegendNANA
09:00 -9.9 -15.3 65 0.0 15 18 16.1 96.54   -17 LegendNANA
10:00 -9.2 -15.3 61 0.0 15 21 16.1 96.51   -17 LegendNANA
11:00 -8.2 -14.7 60 0.0 15 18 16.1 96.41   -15 LegendNANA
12:00 -7.1 -14.6 56 0.0 15 22 16.1 96.29   -15 LegendNANA
13:00 -6.2 -14.1 54 0.0 15 21 16.1 96.25   -13 LegendNANA
14:00 -5.5 -13.8 52 0.0 15 22 16.1 96.18   -13 LegendNANA
15:00 -5.5 -13.3 55 0.0 15 17 16.1 96.16   -12 LegendNANA
16:00 -5.6 -13.2 56 0.0 16 18 16.1 96.14   -12 LegendNANA
17:00 -5.5 -12.6 58 0.0 16 17 16.1 96.14   -12 LegendNANA
18:00 -5.5 -12.5 58 0.0 17 17 16.1 96.12   -12 LegendNANA
19:00 -5.6 -11.5 63 0.0 16 17 16.1 96.08   -12 LegendNANA
20:00 -5.4 -10.8 66 0.0 17 13 16.1 96.07   -11 LegendNANA
21:00 -5.4 -11.0 65 0.0 16 17 16.1 96.06   -11 LegendNANA
22:00 -5.6 -11.3 65 0.0 16 17 16.1 96.02   -12 LegendNANA
23:00 -5.8 -11.6 64 0.0 17 15 16.1 96.06   -12 LegendNANA

Notes on Data Quality.

Legend

  • E = Estimated
  • M = Missing
  • NA = Not Available*
  • [empty] = Indicates an unobserved value
Date modified: